CW2401 Weather Reports


Display with metric or nautical units.
time (UTC)temp
F
wind
direction
speed
MPH
gust
MPH
rain 1hr
in
rain 24hr
in
rain mn
in
humidity
%
barometer
mb
20260905161233 89 176 1.0 3.0 0.00 0.00 0.00 66 1013.1
20260905161035 89 178 1.0 3.0 0.00 0.00 0.00 66 1013.1
20260905160834 89 177 1.0 3.0 0.00 0.00 0.00 66 1013.1
20260905160633 89 101 1.0 4.0 0.00 0.00 0.00 66 1013.1
20260905160432 89 19 1.0 4.0 0.00 0.00 0.00 67 1013.1
20260905160234 89 5 1.0 4.0 0.00 0.00 0.00 67 1013.2
20260905155834 89 5 1.0 4.0 0.00 0.00 0.00 67 1013.2
20260905155630 89 355 1.0 4.0 0.00 0.00 0.00 67 1013.2
20260905155430 88 34 1.0 3.0 0.00 0.00 0.00 67 1013.3
20260905155230 88 5 1.0 2.0 0.00 0.00 0.00 67 1013.4
20260905155029 88 5 1.0 2.0 0.00 0.00 0.00 69 1013.4
20260905154630 88 5 1.0 2.0 0.00 0.00 0.00 66 1013.4
20260905153828 88 5 1.0 4.0 0.00 0.00 0.00 68 1013.4
20260905153625 88 0 1.0 4.0 0.00 0.00 0.00 68 1013.5
20260905153426 88 0 1.0 4.0 0.00 0.00 0.00 69 1013.5
20260905153227 88 0 1.0 4.0 0.00 0.00 0.00 70 1013.5
20260905153025 88 0 1.0 4.0 0.00 0.00 0.00 70 1013.6
20260905152826 88 21 1.0 4.0 0.00 0.00 0.00 70 1013.6
20260905152627 87 19 1.0 4.0 0.00 0.00 0.00 69 1013.6
20260905152223 87 5 1.0 2.0 0.00 0.00 0.00 72 1013.6
20260905151823 87 5 0.0 2.0 0.00 0.00 0.00 69 1013.7
20260905151623 87 5 1.0 4.0 0.00 0.00 0.00 70 1013.7
20260905151425 87 350 1.0 4.0 0.00 0.00 0.00 71 1013.7
20260905151224 87 350 1.0 4.0 0.00 0.00 0.00 71 1013.7
20260905150823 87 350 1.0 4.0 0.00 0.00 0.00 71 1013.8
20260905150626 87 5 1.0 3.0 0.00 0.00 0.00 71 1013.8
20260905150425 86 5 1.0 3.0 0.00 0.00 0.00 71 1013.7
20260905150225 86 0 1.0 3.0 0.00 0.00 0.00 72 1013.7
20260905145826 86 51 0.0 2.0 0.00 0.00 0.00 72 1013.8
20260905145627 86 51 0.0 2.0 0.00 0.00 0.00 73 1013.7
20260905145425 86 49 0.0 2.0 0.00 0.00 0.00 74 1013.7
20260905145224 86 49 0.0 2.0 0.00 0.00 0.00 72 1013.6
20260905144823 86 49 1.0 3.0 0.00 0.00 0.00 72 1013.6
20260905144625 86 41 1.0 3.0 0.00 0.00 0.00 73 1013.6
20260905144425 86 41 1.0 3.0 0.00 0.00 0.00 74 1013.6
20260905144223 85 81 1.0 3.0 0.00 0.00 0.00 73 1013.6
20260905144024 85 86 1.0 4.0 0.00 0.00 0.00 73 1013.7
20260905143825 85 88 1.0 4.0 0.00 0.00 0.00 74 1013.7
20260905143624 85 88 1.0 4.0 0.00 0.00 0.00 74 1013.7
20260905143425 85 0 1.0 4.0 0.00 0.00 0.00 73 1013.7
20260905143223 85 0 1.0 4.0 0.00 0.00 0.00 74 1013.8
20260905143024 85 186 1.0 4.0 0.00 0.00 0.00 74 1013.7
20260905142826 85 5 1.0 4.0 0.00 0.00 0.00 75 1013.8
20260905142624 85 17 1.0 4.0 0.00 0.00 0.00 74 1013.7
20260905142424 85 329 1.0 4.0 0.00 0.00 0.00 76 1013.7
20260905142224 84 267 1.0 4.0 0.00 0.00 0.00 76 1013.7
20260905141624 84 105 0.0 3.0 0.00 0.00 0.00 76 1013.6
20260905141423 84 151 0.0 2.0 0.00 0.00 0.00 77 1013.6
20260905141225 84 78 0.0 1.0 0.00 0.00 0.00 77 1013.6
20260905141025 83 77 0.0 1.0 0.00 0.00 0.00 78 1013.6
20260905140826 83 77 0.0 1.0 0.00 0.00 0.00 78 1013.6
20260905140623 83 76 0.0 1.0 0.00 0.00 0.00 79 1013.6
20260905140425 83 76 0.0 1.0 0.00 0.00 0.00 80 1013.7
20260905140225 82 76 0.0 2.0 0.00 0.00 0.00 81 1013.6
20260905140025 82 76 0.0 2.0 0.00 0.00 0.00 82 1013.6
20260905135623 81 76 1.0 2.0 0.00 0.00 0.00 82 1013.5
20260905135425 81 76 1.0 2.0 0.00 0.00 0.00 83 1013.5
20260905135224 80 76 0.0 2.0 0.00 0.00 0.00 84 1013.5
20260905135023 80 75 0.0 2.0 0.00 0.00 0.00 85 1013.5
20260905134823 80 74 0.0 2.0 0.00 0.00 0.00 85 1013.5
20260905134624 79 74 0.0 2.0 0.00 0.00 0.00 86 1013.5
20260905134426 79 75 0.0 2.0 0.00 0.00 0.00 86 1013.5
20260905134224 79 69 0.0 2.0 0.00 0.00 0.00 87 1013.5
20260905134024 79 69 0.0 2.0 0.00 0.00 0.00 88 1013.5
20260905133823 79 69 0.0 2.0 0.00 0.00 0.00 87 1013.5
20260905133625 78 328 0.0 1.0 0.00 0.00 0.00 87 1013.5
20260905133423 78 328 0.0 1.0 0.00 0.00 0.00 89 1013.5
20260905133025 78 338 0.0 3.0 0.00 0.00 0.00 90 1013.5
20260905132823 78 338 0.0 3.0 0.00 0.00 0.00 90 1013.5
20260905132624 78 338 0.0 3.0 0.00 0.00 0.00 90 1013.5
20260905132224 77 219 0.0 2.0 0.00 0.00 0.00 91 1013.6
20260905132023 77 254 0.0 3.0 0.00 0.00 0.00 92 1013.6
20260905131823 77 254 0.0 3.0 0.00 0.00 0.00 92 1013.6
20260905131624 77 253 0.0 3.0 0.00 0.00 0.00 92 1013.5
20260905131024 76 135 0.0 2.0 0.00 0.00 0.00 92 1013.5
20260905130824 76 135 0.0 2.0 0.00 0.00 0.00 93 1013.5
20260905130624 76 136 0.0 2.0 0.00 0.00 0.00 93 1013.6
20260905130424 76 136 0.0 2.0 0.00 0.00 0.00 93 1013.5
20260905130223 76 121 0.0 0.0 0.00 0.00 0.00 93 1013.6
20260905130025 76 121 0.0 0.0 0.00 0.00 0.00 94 1013.5
20260905125823 75 121 0.0 2.0 0.00 0.00 0.00 94 1013.5
20260905125625 75 125 0.0 2.0 0.00 0.00 0.00 94 1013.6
20260905125423 75 125 0.0 2.0 0.00 0.00 0.00 94 1013.6
20260905125224 75 125 0.0 2.0 0.00 0.00 0.00 94 1013.6
20260905125023 75 125 0.0 2.0 0.00 0.00 0.00 94 1013.6
20260905124823 75 125 0.0 2.0 0.00 0.00 0.00 94 1013.6
20260905124625 75 125 0.0 2.0 0.00 0.00 0.00 94 1013.6
20260905124023 74 124 0.0 2.0 0.00 0.00 0.00 95 1013.6
20260905123825 74 124 0.0 2.0 0.00 0.00 0.00 95 1013.6
20260905123625 74 124 0.0 2.0 0.00 0.00 0.00 95 1013.6
20260905123424 74 124 0.0 2.0 0.00 0.00 0.00 95 1013.6
20260905123021 74 124 0.0 1.0 0.00 0.00 0.00 94 1013.6
20260905122619 74 124 0.0 1.0 0.00 0.00 0.00 94 1013.6
20260905122417 73 124 0.0 1.0 0.00 0.00 0.00 94 1013.6
20260905122217 73 123 0.0 0.0 0.00 0.00 0.00 94 1013.6
20260905121811 73 123 0.0 0.0 0.00 0.00 0.00 94 1013.7
20260905121610 73 123 0.0 0.0 0.00 0.00 0.00 94 1013.6
20260905121410 73 123 0.0 0.0 0.00 0.00 0.00 94 1013.6
20260905121009 73 123 0.0 0.0 0.00 0.00 0.00 94 1013.6
20260905120609 73 124 0.0 0.0 0.00 0.00 0.00 93 1013.6
20260905120409 73 123 0.0 0.0 0.00 0.00 0.00 93 1013.6
20260905120209 73 124 0.0 0.0 0.00 0.00 0.00 93 1013.6
20260905120011 73 123 0.0 0.0 0.00 0.00 0.00 93 1013.7
20260905115808 73 123 0.0 0.0 0.00 0.00 0.00 93 1013.7
20260905115606 73 123 0.0 0.0 0.00 0.00 0.00 93 1013.7
20260905115405 73 124 0.0 0.0 0.00 0.00 0.00 93 1013.6
20260905115206 73 123 0.0 0.0 0.00 0.00 0.00 93 1013.6
20260905115004 73 123 0.0 0.0 0.00 0.00 0.00 93 1013.6
20260905114804 73 123 0.0 0.0 0.00 0.00 0.00 93 1013.6
20260905114602 73 124 0.0 0.0 0.00 0.00 0.00 93 1013.6
20260905114201 73 124 0.0 0.0 0.00 0.00 0.00 93 1013.5
20260905113800 73 123 0.0 0.0 0.00 0.00 0.00 93 1013.5
20260905113601 73 124 0.0 0.0 0.00 0.00 0.00 93 1013.4
20260905113359 73 123 0.0 0.0 0.00 0.00 0.00 93 1013.4
20260905113200 73 123 0.0 0.0 0.00 0.00 0.00 93 1013.4
20260905112958 73 123 0.0 0.0 0.00 0.00 0.00 93 1013.4
20260905112757 73 123 0.0 0.0 0.00 0.00 0.00 93 1013.3
20260905112356 73 123 0.0 0.0 0.00 0.00 0.00 93 1013.3
20260905111951 73 123 0.0 0.0 0.00 0.00 0.00 93 1013.2
20260905111750 73 123 0.0 0.0 0.00 0.00 0.00 93 1013.2
20260905111549 73 124 0.0 0.0 0.00 0.00 0.00 93 1013.2
20260905111348 73 123 0.0 0.0 0.00 0.00 0.00 93 1013.2
20260905111146 73 123 0.0 0.0 0.00 0.00 0.00 93 1013.1
20260905110948 73 123 0.0 0.0 0.00 0.00 0.00 93 1013.1
20260905110745 73 123 0.0 0.0 0.00 0.00 0.00 93 1013.1
20260905110141 73 123 0.0 0.0 0.00 0.00 0.00 93 1013.0
20260905105941 73 123 0.0 0.0 0.00 0.00 0.00 93 1013.0
20260905105741 73 123 0.0 0.0 0.00 0.00 0.00 92 1013.1
20260905105540 73 123 0.0 0.0 0.00 0.00 0.00 92 1013.0
20260905105339 73 124 0.0 0.0 0.00 0.00 0.00 92 1013.0
20260905105139 73 124 0.0 0.0 0.00 0.00 0.00 93 1013.0
20260905104935 73 123 0.0 0.0 0.00 0.00 0.00 93 1013.0
20260905104734 73 123 0.0 0.0 0.00 0.00 0.00 92 1013.0
20260905104330 73 123 0.0 0.0 0.00 0.00 0.00 93 1012.9
20260905104131 73 124 0.0 0.0 0.00 0.00 0.00 93 1012.9
20260905103928 73 123 0.0 0.0 0.00 0.00 0.00 93 1012.8
20260905103726 73 123 0.0 0.0 0.00 0.00 0.00 93 1012.8
20260905103525 73 123 0.0 0.0 0.00 0.00 0.00 93 1012.8
20260905103322 73 123 0.0 0.0 0.00 0.00 0.00 93 1012.8
20260905102921 73 124 0.0 0.0 0.00 0.00 0.00 93 1012.8
20260905102721 73 123 0.0 0.0 0.00 0.00 0.00 93 1012.8
20260905102519 73 123 0.0 0.0 0.00 0.00 0.00 93 1012.8
20260905102117 73 123 0.0 0.0 0.00 0.00 0.00 93 1012.8
20260905101716 73 124 0.0 0.0 0.00 0.00 0.00 93 1012.8
20260905101516 73 123 0.0 0.0 0.00 0.00 0.00 93 1012.8
20260905101315 73 123 0.0 0.0 0.00 0.00 0.00 93 1012.8
20260905101115 73 123 0.0 0.0 0.00 0.00 0.00 93 1012.8
20260905100916 73 123 0.0 0.0 0.00 0.00 0.00 93 1012.7
20260905100715 73 123 0.0 0.0 0.00 0.00 0.00 93 1012.7
20260905100516 73 123 0.0 0.0 0.00 0.00 0.00 93 1012.7
20260905100114 73 124 0.0 0.0 0.00 0.00 0.00 93 1012.7
20260905095914 73 123 0.0 0.0 0.00 0.00 0.00 92 1012.6
20260905095715 73 123 0.0 0.0 0.00 0.00 0.00 92 1012.6
20260905095312 73 124 0.0 0.0 0.00 0.00 0.00 93 1012.6
20260905095110 73 123 0.0 0.0 0.00 0.00 0.00 93 1012.6
20260905094912 73 124 0.0 0.0 0.00 0.00 0.00 93 1012.6
20260905094709 73 124 0.0 0.0 0.00 0.00 0.00 93 1012.6
20260905094510 73 123 0.0 0.0 0.00 0.00 0.00 93 1012.5
20260905094110 73 123 0.0 0.0 0.00 0.00 0.00 93 1012.6
20260905093907 73 123 0.0 0.0 0.00 0.00 0.00 93 1012.6
20260905093706 73 123 0.0 0.0 0.00 0.00 0.00 93 1012.6
20260905093105 73 123 0.0 0.0 0.00 0.00 0.00 92 1012.5
20260905092905 73 123 0.0 0.0 0.00 0.00 0.00 92 1012.5
20260905092704 73 123 0.0 0.0 0.00 0.00 0.00 92 1012.6
20260905092502 73 123 0.0 0.0 0.00 0.00 0.00 92 1012.6
20260905092259 73 123 0.0 0.0 0.00 0.00 0.00 92 1012.6
20260905092059 73 123 0.0 0.0 0.00 0.00 0.00 92 1012.6
20260905091702 73 123 0.0 0.0 0.00 0.00 0.00 92 1012.7
20260905091457 73 123 0.0 0.0 0.00 0.00 0.00 92 1012.6
20260905091257 73 123 0.0 0.0 0.00 0.00 0.00 92 1012.7
20260905091057 73 124 0.0 0.0 0.00 0.00 0.00 92 1012.7
20260905090857 73 123 0.0 0.0 0.00 0.00 0.00 92 1012.7
20260905090453 73 123 0.0 0.0 0.00 0.00 0.00 92 1012.7
20260905090254 73 123 0.0 0.0 0.00 0.00 0.00 92 1012.7
20260905090049 73 124 0.0 0.0 0.00 0.00 0.00 92 1012.7
20260905085847 73 123 0.0 0.0 0.00 0.00 0.00 92 1012.7
20260905085645 73 124 0.0 0.0 0.00 0.00 0.00 92 1012.8
20260905085445 73 123 0.0 0.0 0.00 0.00 0.00 92 1012.8
20260905085243 73 123 0.0 0.0 0.00 0.00 0.00 92 1012.8
20260905085041 73 123 0.0 0.0 0.00 0.00 0.00 92 1012.9
20260905084640 73 124 0.0 0.0 0.00 0.00 0.00 92 1013.0
20260905084442 73 123 0.0 0.0 0.00 0.00 0.00 92 1013.0
20260905084239 73 123 0.0 0.0 0.00 0.00 0.00 92 1013.1
20260905084037 73 123 0.0 0.0 0.00 0.00 0.00 92 1013.1
20260905083638 73 123 0.0 0.0 0.00 0.00 0.00 92 1013.2
20260905083435 73 123 0.0 0.0 0.00 0.00 0.00 92 1013.2
20260905082634 74 123 0.0 0.0 0.00 0.00 0.00 92 1013.2
20260905082431 74 123 0.0 0.0 0.00 0.00 0.00 92 1013.2
20260905082229 74 124 0.0 0.0 0.00 0.00 0.00 92 1013.2
20260905082030 74 123 0.0 0.0 0.00 0.00 0.00 92 1013.3
20260905081827 74 123 0.0 0.0 0.00 0.00 0.00 92 1013.4
20260905081628 74 123 0.0 0.0 0.00 0.00 0.00 92 1013.4
20260905081424 74 123 0.0 0.0 0.00 0.00 0.00 92 1013.4
20260905081223 74 123 0.0 0.0 0.00 0.00 0.00 92 1013.4
20260905081020 74 123 0.0 0.0 0.00 0.00 0.00 92 1013.4
20260905080820 74 123 0.0 0.0 0.00 0.00 0.00 92 1013.4
20260905080620 74 123 0.0 0.0 0.00 0.00 0.00 92 1013.4
20260905080419 74 123 0.0 0.0 0.00 0.00 0.00 92 1013.5
20260905080220 74 124 0.0 0.0 0.00 0.00 0.00 92 1013.5
20260905080021 74 123 0.0 0.0 0.00 0.00 0.00 92 1013.6
20260905075820 74 124 0.0 0.0 0.00 0.00 0.00 92 1013.7
20260905075620 74 123 0.0 0.0 0.00 0.00 0.00 92 1013.7
20260905075419 74 123 0.0 0.0 0.00 0.00 0.00 92 1013.7
20260905075219 74 124 0.0 0.0 0.00 0.00 0.00 92 1013.7
20260905075020 74 123 0.0 0.0 0.00 0.00 0.00 92 1013.8
20260905074818 74 123 0.0 1.0 0.00 0.00 0.00 92 1013.8
20260905074618 74 124 0.0 1.0 0.00 0.00 0.00 92 1013.8
20260905074418 74 124 0.0 1.0 0.00 0.00 0.00 92 1013.8
20260905074218 74 123 0.0 1.0 0.00 0.00 0.00 92 1013.8
20260905074016 74 123 0.0 1.0 0.00 0.00 0.00 92 1013.8
20260905073814 74 123 0.0 0.0 0.00 0.00 0.00 92 1013.8
20260905073412 74 123 0.0 0.0 0.00 0.00 0.00 92 1013.8
20260905073210 74 123 0.0 0.0 0.00 0.00 0.00 92 1013.8
20260905073006 74 124 0.0 0.0 0.00 0.00 0.00 92 1013.8
20260905072807 74 123 0.0 0.0 0.00 0.00 0.00 92 1013.8
20260905072406 74 123 0.0 0.0 0.00 0.00 0.00 92 1013.9
20260905072207 74 124 0.0 0.0 0.00 0.00 0.00 92 1013.9
20260905072008 74 124 0.0 0.0 0.00 0.00 0.00 92 1013.9
20260905071808 74 123 0.0 0.0 0.00 0.00 0.00 92 1013.9
20260905071406 74 124 0.0 0.0 0.00 0.00 0.00 92 1013.9
20260905071204 74 123 0.0 0.0 0.00 0.00 0.00 92 1013.9
20260905070405 74 124 0.0 0.0 0.00 0.00 0.00 91 1013.9
20260905070205 74 123 0.0 0.0 0.00 0.00 0.00 92 1013.9
20260905070005 74 123 0.0 0.0 0.00 0.00 0.00 92 1014.0
20260905065805 74 123 0.0 0.0 0.00 0.00 0.00 92 1014.0
20260905065605 74 124 0.0 0.0 0.00 0.00 0.00 92 1014.0
20260905065203 74 123 0.0 0.0 0.00 0.00 0.00 92 1014.0
20260905064803 74 123 0.0 0.0 0.00 0.00 0.00 92 1014.0
20260905064603 74 123 0.0 0.0 0.00 0.00 0.00 91 1014.0
20260905064402 74 123 0.0 0.0 0.00 0.00 0.00 92 1014.1
20260905064201 74 123 0.0 0.0 0.00 0.00 0.00 92 1014.0
20260905064002 74 123 0.0 0.0 0.00 0.00 0.00 91 1014.2
20260905063357 74 123 0.0 0.0 0.00 0.00 0.00 91 1014.2
20260905063154 74 123 0.0 0.0 0.00 0.00 0.00 91 1014.3
20260905062956 74 123 0.0 1.0 0.00 0.00 0.00 91 1014.3
20260905062756 74 123 0.0 1.0 0.00 0.00 0.00 91 1014.3
20260905062554 74 123 0.0 1.0 0.00 0.00 0.00 91 1014.4
20260905062355 74 124 0.0 1.0 0.00 0.00 0.00 91 1014.4
20260905062155 74 123 0.0 1.0 0.00 0.00 0.00 91 1014.4
20260905061953 74 123 0.0 0.0 0.00 0.00 0.00 91 1014.5
20260905061555 74 123 0.0 0.0 0.00 0.00 0.00 91 1014.4
20260905061351 74 123 0.0 0.0 0.00 0.00 0.00 91 1014.4
20260905061152 74 123 0.0 0.0 0.00 0.00 0.00 91 1014.4
20260905060952 74 123 0.0 0.0 0.00 0.00 0.00 91 1014.4
20260905060752 74 123 0.0 0.0 0.00 0.00 0.00 91 1014.5
20260905060347 74 123 0.0 0.0 0.00 0.00 0.00 91 1014.6
20260905060147 74 123 0.0 0.0 0.00 0.00 0.00 91 1014.6
20260905055947 75 123 0.0 0.0 0.00 0.00 0.00 91 1014.7
20260905055748 75 124 0.0 0.0 0.00 0.00 0.00 91 1014.7
20260905055546 75 123 0.0 0.0 0.00 0.00 0.00 90 1014.7
20260905055343 75 123 0.0 0.0 0.00 0.00 0.00 90 1014.8
20260905055141 75 123 0.0 0.0 0.00 0.00 0.00 90 1014.9
20260905054940 75 123 0.0 0.0 0.00 0.00 0.00 90 1014.9
20260905054740 75 123 0.0 0.0 0.00 0.00 0.00 90 1014.9
20260905054538 75 123 0.0 0.0 0.00 0.00 0.00 90 1014.9
20260905054335 75 123 0.0 0.0 0.00 0.00 0.00 90 1015.0
20260905054134 75 123 0.0 0.0 0.00 0.00 0.00 90 1015.0
20260905053931 75 123 0.0 0.0 0.00 0.00 0.00 90 1015.1
20260905053731 75 123 0.0 0.0 0.00 0.00 0.00 90 1015.2
20260905053531 75 124 0.0 0.0 0.00 0.00 0.00 89 1015.4
20260905053332 75 123 0.0 0.0 0.00 0.00 0.00 89 1015.5
20260905052928 75 124 0.0 0.0 0.00 0.00 0.00 89 1015.5
20260905052528 75 124 0.0 0.0 0.00 0.00 0.00 89 1015.6
20260905052329 75 123 0.0 0.0 0.00 0.00 0.00 89 1015.6
20260905052129 75 123 0.0 0.0 0.00 0.00 0.00 88 1015.6
20260905051727 75 123 0.0 0.0 0.00 0.00 0.00 88 1015.7
20260905051327 75 123 0.0 0.0 0.00 0.00 0.00 88 1015.7
20260905051127 75 123 0.0 0.0 0.00 0.00 0.00 88 1015.8
20260905050927 75 123 0.0 0.0 0.00 0.00 0.00 88 1015.8
20260905050727 75 123 0.0 0.0 0.00 0.00 0.00 88 1015.8
20260905050527 75 124 0.0 0.0 0.00 0.00 0.00 88 1015.8
20260905050323 75 123 0.0 0.0 0.00 0.00 0.00 88 1015.8
20260905050123 75 123 0.0 0.0 0.00 0.00 0.00 88 1015.8
20260905045921 75 123 0.0 0.0 0.00 0.00 0.00 88 1015.8
20260905045318 75 124 0.0 0.0 0.00 0.00 0.00 88 1015.9
20260905045117 75 123 0.0 0.0 0.00 0.00 0.00 88 1015.9
20260905044715 75 123 0.0 0.0 0.00 0.00 0.00 88 1015.9
20260905044512 75 123 0.0 0.0 0.00 0.00 0.00 88 1015.9
20260905044314 75 124 0.0 0.0 0.00 0.00 0.00 87 1016.1
20260905044112 75 123 0.0 0.0 0.00 0.00 0.00 87 1015.9
20260905043509 75 123 0.0 0.0 0.00 0.00 0.00 87 1016.1
20260905043310 75 124 0.0 0.0 0.00 0.00 0.00 87 1016.2
20260905042708 75 123 0.0 0.0 0.00 0.00 0.00 87 1016.1
20260905042505 75 123 0.0 0.0 0.00 0.00 0.00 87 1016.2
20260905042106 75 123 0.0 0.0 0.00 0.00 0.00 87 1016.2
20260905041905 75 123 0.0 0.0 0.00 0.00 0.00 87 1016.2
20260905041705 75 123 0.0 0.0 0.00 0.00 0.00 87 1016.1
20260905041504 76 123 0.0 0.0 0.00 0.00 0.00 87 1016.1
20260905040859 76 123 0.0 0.0 0.00 0.00 0.00 87 1016.2
20260905040657 76 123 0.0 0.0 0.00 0.00 0.00 87 1016.2
20260905040458 76 123 0.0 0.0 0.00 0.00 0.00 87 1016.2
20260905040255 76 124 0.0 0.0 0.00 0.00 0.00 87 1016.2
20260905040055 76 123 0.0 0.0 0.00 0.00 0.00 86 1016.2
20260905035855 76 123 0.0 0.0 0.00 0.00 0.00 86 1016.2
20260905035247 76 124 0.0 0.0 0.00 0.00 0.00 86 1016.3
20260905035048 76 123 0.0 0.0 0.00 0.00 0.00 86 1016.3
20260905034846 76 123 0.0 0.0 0.00 0.00 0.00 86 1016.2
20260905034645 76 124 0.0 0.0 0.00 0.00 0.00 86 1016.2
20260905034445 76 123 0.0 0.0 0.00 0.00 0.00 85 1016.1
20260905034245 76 123 0.0 0.0 0.00 0.00 0.00 86 1016.2
20260905034043 76 123 0.0 0.0 0.00 0.00 0.00 85 1016.1
20260905033841 76 124 0.0 0.0 0.00 0.00 0.00 85 1016.1
20260905033641 76 123 0.0 0.0 0.00 0.00 0.00 85 1016.1
20260905033436 76 124 0.0 0.0 0.00 0.00 0.00 85 1015.9
20260905033237 76 123 0.0 0.0 0.00 0.00 0.00 85 1016.1
20260905033039 76 123 0.0 0.0 0.00 0.00 0.00 85 1015.9
20260905032836 76 123 0.0 0.0 0.00 0.00 0.00 85 1016.2
20260905032635 76 123 0.0 0.0 0.00 0.00 0.00 85 1016.2
20260905032433 76 123 0.0 0.0 0.00 0.00 0.00 85 1016.2
20260905032231 76 123 0.0 0.0 0.00 0.00 0.00 85 1016.2
20260905032029 76 123 0.0 0.0 0.00 0.00 0.00 85 1016.1
20260905031831 76 123 0.0 0.0 0.00 0.00 0.00 85 1015.9
20260905031631 76 123 0.0 0.0 0.00 0.00 0.00 85 1015.9
20260905031428 76 123 0.0 0.0 0.00 0.00 0.00 85 1015.8
20260905031229 76 124 0.0 0.0 0.00 0.00 0.00 84 1015.8
20260905030828 76 123 0.0 0.0 0.00 0.00 0.00 84 1015.7
20260905030628 76 123 0.0 0.0 0.00 0.00 0.00 84 1015.7
20260905030426 76 123 0.0 0.0 0.00 0.00 0.00 84 1015.8
20260905030223 76 123 0.0 0.0 0.00 0.00 0.00 84 1015.9
20260905030022 77 124 0.0 0.0 0.00 0.00 0.00 84 1015.9
20260905025417 77 123 0.0 0.0 0.00 0.00 0.00 84 1015.9
20260905025217 77 123 0.0 0.0 0.00 0.00 0.00 84 1015.9
20260905025018 77 123 0.0 0.0 0.00 0.00 0.00 84 1015.9
20260905024815 77 123 0.0 0.0 0.00 0.00 0.00 84 1015.8
20260905024615 77 123 0.0 0.0 0.00 0.00 0.00 84 1015.8
20260905024413 77 123 0.0 0.0 0.00 0.00 0.00 83 1015.8
20260905024213 77 123 0.0 0.0 0.00 0.00 0.00 84 1015.7
20260905024014 77 123 0.0 0.0 0.00 0.00 0.00 83 1015.7
20260905023813 77 123 0.0 0.0 0.00 0.00 0.00 83 1015.7
20260905023615 77 123 0.0 0.0 0.00 0.00 0.00 83 1015.8
20260905023413 77 123 0.0 0.0 0.00 0.00 0.00 83 1015.8
20260905023212 77 124 0.0 0.0 0.00 0.00 0.00 83 1015.9
20260905023011 77 123 0.0 0.0 0.00 0.00 0.00 82 1016.1
20260905022811 77 123 0.0 0.0 0.00 0.00 0.00 82 1016.1
20260905022611 77 123 0.0 0.0 0.00 0.00 0.00 82 1016.1
20260905022212 77 124 0.0 0.0 0.00 0.00 0.00 82 1016.1
20260905022009 77 123 0.0 0.0 0.00 0.00 0.00 82 1015.9
20260905021810 77 123 0.0 0.0 0.00 0.00 0.00 82 1015.9
20260905021609 77 123 0.0 0.0 0.00 0.00 0.00 82 1016.1
20260905021408 77 123 0.0 0.0 0.00 0.00 0.00 82 1015.9
20260905021206 77 123 0.0 0.0 0.00 0.00 0.00 82 1015.9
20260905021007 77 123 0.0 0.0 0.00 0.00 0.00 82 1015.9
20260905020807 77 123 0.0 0.0 0.00 0.00 0.00 82 1015.8
20260905020607 77 123 0.0 0.0 0.00 0.00 0.00 82 1015.9
20260905020406 77 124 0.0 0.0 0.00 0.00 0.00 82 1015.8
20260905020206 77 123 0.0 0.0 0.00 0.00 0.00 81 1015.9
20260905020006 77 123 0.0 0.0 0.00 0.00 0.00 81 1016.1
20260905015807 77 123 0.0 0.0 0.00 0.00 0.00 81 1016.2
20260905015604 77 123 0.0 0.0 0.00 0.00 0.00 81 1016.3
20260905015402 77 123 0.0 0.0 0.00 0.00 0.00 82 1016.2
20260905014959 78 123 0.0 0.0 0.00 0.00 0.00 82 1016.2
20260905014556 78 123 0.0 0.0 0.00 0.00 0.00 82 1016.2
20260905014355 78 123 0.0 0.0 0.00 0.00 0.00 84 1016.3
20260905014155 78 123 0.0 0.0 0.00 0.00 0.00 84 1016.4
20260905013753 78 124 0.0 1.0 0.00 0.00 0.00 83 1016.2
20260905013553 78 124 0.0 1.0 0.00 0.00 0.00 83 1015.9
20260905013352 78 124 0.0 1.0 0.00 0.00 0.00 83 1015.9
20260905013152 78 124 0.0 1.0 0.00 0.00 0.00 83 1016.1
20260905012953 78 123 0.0 1.0 0.00 0.00 0.00 83 1016.2
20260905012750 78 107 0.0 0.0 0.00 0.00 0.00 83 1016.1
20260905012548 78 107 0.0 0.0 0.00 0.00 0.00 83 1015.6
20260905012350 78 107 0.0 0.0 0.00 0.00 0.00 83 1015.3
20260905012147 78 107 0.0 0.0 0.00 0.00 0.00 83 1015.1
20260905011948 78 107 0.0 0.0 0.00 0.00 0.00 83 1014.9
20260905011745 78 107 0.0 0.0 0.00 0.00 0.00 83 1014.8
20260905011544 78 107 0.0 0.0 0.00 0.00 0.00 83 1014.7
20260905011343 78 107 0.0 0.0 0.00 0.00 0.00 83 1014.6
20260905010941 78 107 0.0 0.0 0.00 0.00 0.00 82 1014.4
20260905010742 78 107 0.0 0.0 0.00 0.00 0.00 82 1014.3
20260905010538 78 107 0.0 0.0 0.00 0.00 0.00 82 1014.3
20260905010136 79 107 0.0 0.0 0.00 0.00 0.00 81 1014.1
20260905005938 79 107 0.0 0.0 0.00 0.00 0.00 81 1014.0
20260905005532 79 107 0.0 0.0 0.00 0.00 0.00 80 1013.8
20260905005329 79 107 0.0 0.0 0.00 0.00 0.00 80 1013.7
20260905004928 80 107 0.0 0.0 0.00 0.00 0.00 78 1013.6
20260905004525 80 107 0.0 0.0 0.00 0.00 0.00 77 1013.7
20260905004322 80 107 0.0 0.0 0.00 0.00 0.00 77 1013.6
20260905004120 80 107 0.0 1.0 0.00 0.00 0.00 77 1013.7
20260905003920 80 107 0.0 1.0 0.00 0.00 0.00 77 1013.7
20260905003716 81 107 0.0 1.0 0.00 0.00 0.00 76 1013.7
20260905003516 81 107 0.0 1.0 0.00 0.00 0.00 75 1013.7
20260905003118 81 107 0.0 2.0 0.00 0.00 0.00 75 1013.7
20260905002917 81 121 0.0 2.0 0.00 0.00 0.00 74 1013.7
20260905002715 82 122 0.0 2.0 0.00 0.00 0.00 74 1013.8
20260905002514 82 122 0.0 2.0 0.00 0.00 0.00 73 1013.7
20260905002314 82 99 0.0 2.0 0.00 0.00 0.00 72 1013.7
20260905002112 82 99 0.0 2.0 0.00 0.00 0.00 72 1013.6
20260905001913 82 99 1.0 3.0 0.00 0.00 0.00 72 1013.7
20260905001711 82 98 0.0 3.0 0.00 0.00 0.00 72 1013.8
20260905001511 82 94 0.0 3.0 0.00 0.00 0.00 71 1013.9
20260905001312 83 94 0.0 3.0 0.00 0.00 0.00 71 1013.9
20260905000911 83 129 0.0 3.0 0.00 0.00 0.00 71 1013.8
20260905000711 83 129 1.0 5.0 0.00 0.00 0.00 71 1013.9
20260905000110 84 13 1.0 6.0 0.00 0.00 0.00 70 1014.1
20260904235908 84 346 2.0 6.0 0.00 0.00 0.00 69 1014.1
20260904235709 84 325 2.0 6.0 0.00 0.00 0.00 69 1014.3
20260904235510 84 326 2.0 6.0 0.00 0.00 0.00 69 1014.3
20260904235307 85 0 2.0 6.0 0.00 0.00 0.00 69 1014.3
20260904235108 85 9 2.0 6.0 0.00 0.00 0.00 69 1014.3
20260904234908 85 180 2.0 6.0 0.00 0.00 0.00 68 1014.4
20260904234707 85 294 3.0 7.0 0.00 0.00 0.00 68 1014.5
20260904234507 85 109 2.0 7.0 0.00 0.00 0.00 67 1014.5
20260904234105 85 101 2.0 7.0 0.00 0.00 0.00 68 1014.6
20260904233905 85 140 2.0 7.0 0.00 0.00 0.00 69 1014.5
20260904233705 85 284 2.0 5.0 0.00 0.00 0.00 70 1014.6
20260904233505 85 137 2.0 5.0 0.00 0.00 0.00 70 1014.7
20260904233305 85 331 2.0 5.0 0.00 0.00 0.00 71 1014.8
20260904232706 85 42 2.0 6.0 0.00 0.00 0.00 72 1014.8
20260904232505 85 159 2.0 6.0 0.00 0.00 0.00 73 1014.7
20260904232307 85 84 2.0 6.0 0.00 0.00 0.00 73 1014.7
20260904232106 85 159 1.0 6.0 0.00 0.00 0.00 74 1014.7
20260904231906 85 247 1.0 3.0 0.00 0.00 0.00 74 1014.7
20260904231702 85 170 1.0 3.0 0.00 0.00 0.00 74 1014.7
20260904231504 85 44 1.0 3.0 0.00 0.00 0.00 75 1014.6
20260904230902 85 57 1.0 3.0 0.00 0.00 0.00 76 1014.4
20260904230703 85 57 1.0 3.0 0.00 0.00 0.00 77 1014.3
20260904230303 85 57 0.0 2.0 0.00 0.00 0.00 76 1014.1
20260904225904 85 57 0.0 2.0 0.00 0.00 0.00 76 1013.9
20260904225703 85 57 0.0 2.0 0.00 0.00 0.00 76 1013.9
20260904225503 85 57 0.0 2.0 0.00 0.00 0.00 76 1014.0
20260904225305 85 57 0.0 2.0 0.00 0.00 0.00 77 1013.9
20260904225102 85 57 0.0 0.0 0.00 0.00 0.00 76 1014.0
20260904224900 85 57 0.0 0.0 0.00 0.00 0.00 76 1013.9
20260904224702 85 57 0.0 0.0 0.00 0.00 0.00 75 1013.9
20260904224302 86 57 0.0 0.0 0.00 0.00 0.00 75 1013.8
20260904224100 86 57 0.0 0.0 0.00 0.00 0.00 76 1013.7
20260904223902 86 57 0.0 0.0 0.00 0.00 0.00 76 1013.7
20260904223702 86 57 0.0 0.0 0.00 0.00 0.00 76 1013.8
20260904223500 86 57 0.0 0.0 0.00 0.00 0.00 77 1013.8
20260904223301 86 57 0.0 0.0 0.00 0.00 0.00 77 1013.8
20260904223103 86 57 0.0 0.0 0.00 0.00 0.00 77 1013.8
20260904222900 86 57 0.0 0.0 0.00 0.00 0.00 76 1013.9
20260904222305 87 57 0.0 0.0 0.00 0.00 0.00 77 1014.0
20260904222102 87 57 0.0 0.0 0.00 0.00 0.00 76 1014.0
20260904221900 87 57 0.0 0.0 0.00 0.00 0.00 77 1014.1
20260904221700 87 57 0.0 0.0 0.00 0.00 0.00 74 1014.1
20260904221502 87 57 0.0 0.0 0.00 0.00 0.00 77 1014.1
20260904221303 87 57 0.0 0.0 0.00 0.00 0.00 77 1014.1
20260904221101 87 57 0.0 0.0 0.00 0.00 0.00 77 1014.0
20260904220903 87 57 0.0 0.0 0.00 0.00 0.00 77 1013.9
20260904220701 87 57 0.0 0.0 0.00 0.00 0.00 77 1013.8
20260904220500 87 57 0.0 0.0 0.00 0.00 0.00 77 1013.7
20260904220301 87 57 0.0 0.0 0.00 0.00 0.00 77 1013.6
20260904215902 87 57 0.0 0.0 0.00 0.00 0.00 77 1013.7
20260904215700 87 57 0.0 0.0 0.00 0.00 0.00 77 1013.7
20260904215500 87 57 0.0 0.0 0.00 0.00 0.00 76 1013.8
20260904215100 87 57 0.0 0.0 0.00 0.00 0.00 76 1013.8
20260904214900 88 57 0.0 0.0 0.00 0.00 0.00 76 1013.9
20260904214701 88 57 0.0 0.0 0.00 0.00 0.00 75 1014.0
20260904214501 88 57 0.0 0.0 0.00 0.00 0.00 74 1013.9
20260904214300 88 57 0.0 0.0 0.00 0.00 0.00 75 1013.9
20260904214102 88 57 0.0 0.0 0.00 0.00 0.00 74 1014.0
20260904213901 88 57 0.0 0.0 0.00 0.00 0.00 74 1014.0
20260904213500 89 57 0.0 0.0 0.00 0.00 0.00 74 1013.9
20260904213301 89 57 0.0 0.0 0.00 0.00 0.00 73 1013.9
20260904213103 89 57 0.0 0.0 0.00 0.00 0.00 72 1013.8
20260904212900 89 57 0.0 0.0 0.00 0.00 0.00 71 1013.8
20260904212700 89 57 0.0 0.0 0.00 0.00 0.00 71 1013.8
20260904212501 89 57 0.0 0.0 0.00 0.00 0.00 71 1013.8
20260904212300 89 57 0.0 1.0 0.00 0.00 0.00 70 1013.8
20260904212100 90 57 0.0 1.0 0.00 0.00 0.00 70 1013.9
20260904211901 90 57 0.0 1.0 0.00 0.00 0.00 69 1014.0
20260904211702 90 57 0.0 1.0 0.00 0.00 0.00 69 1014.0
20260904211501 90 57 0.0 1.0 0.00 0.00 0.00 69 1013.9
20260904211300 90 57 0.0 1.0 0.00 0.00 0.00 68 1013.9
20260904211101 90 57 0.0 2.0 0.00 0.00 0.00 68 1013.9
20260904210900 91 57 0.0 2.0 0.00 0.00 0.00 67 1013.8
20260904210700 91 57 0.0 2.0 0.00 0.00 0.00 67 1013.9
20260904210502 91 57 0.0 2.0 0.00 0.00 0.00 67 1013.9
20260904210301 91 57 0.0 2.0 0.00 0.00 0.00 66 1013.9
20260904205702 92 58 0.0 1.0 0.00 0.00 0.00 66 1013.5
20260904205501 92 58 0.0 1.0 0.00 0.00 0.00 65 1013.5
20260904205300 92 58 0.0 1.0 0.00 0.00 0.00 64 1013.5
20260904205100 92 58 0.0 2.0 0.00 0.00 0.00 65 1013.7
20260904204902 93 58 0.0 2.0 0.00 0.00 0.00 64 1013.6
20260904204701 93 58 1.0 4.0 0.00 0.00 0.00 64 1013.5
20260904203901 93 17 1.0 4.0 0.00 0.00 0.00 63 1013.5
20260904203700 93 35 1.0 2.0 0.00 0.00 0.00 63 1013.5
20260904203500 93 34 1.0 2.0 0.00 0.00 0.00 62 1013.6
20260904203300 93 165 1.0 2.0 0.00 0.00 0.00 65 1013.5
20260904203101 93 15 1.0 2.0 0.00 0.00 0.00 64 1013.6
20260904202901 93 15 1.0 2.0 0.00 0.00 0.00 63 1013.7
20260904202659 93 15 1.0 3.0 0.00 0.00 0.00 65 1013.7
20260904202459 93 15 1.0 3.0 0.00 0.00 0.00 66 1013.7
20260904202058 93 15 1.0 3.0 0.00 0.00 0.00 64 1013.7
20260904201856 93 15 1.0 3.0 0.00 0.00 0.00 66 1013.7
20260904201654 93 15 1.0 3.0 0.00 0.00 0.00 66 1013.6
20260904201455 93 11 0.0 3.0 0.00 0.00 0.00 64 1013.6
20260904201252 94 11 0.0 3.0 0.00 0.00 0.00 65 1013.7
20260904201052 94 11 0.0 3.0 0.00 0.00 0.00 63 1013.8
20260904200853 94 350 1.0 3.0 0.00 0.00 0.00 64 1013.9
20260904200651 94 350 0.0 3.0 0.00 0.00 0.00 59 1014.0
20260904200451 94 344 0.0 3.0 0.00 0.00 0.00 63 1014.0
20260904200250 94 344 1.0 3.0 0.00 0.00 0.00 63 1014.1
20260904200048 94 38 1.0 5.0 0.00 0.00 0.00 58 1014.2
20260904195646 94 39 1.0 5.0 0.00 0.00 0.00 64 1014.2
20260904195447 94 40 1.0 5.0 0.00 0.00 0.00 66 1014.3
20260904195247 94 40 0.0 5.0 0.00 0.00 0.00 58 1014.3
20260904195045 94 69 0.0 3.0 0.00 0.00 0.00 60 1014.2
20260904194843 94 119 0.0 2.0 0.00 0.00 0.00 65 1014.3
20260904194641 94 118 0.0 2.0 0.00 0.00 0.00 56 1014.3
20260904194439 94 117 1.0 2.0 0.00 0.00 0.00 60 1014.5
20260904194240 94 117 1.0 2.0 0.00 0.00 0.00 58 1014.6
20260904193836 94 139 1.0 2.0 0.00 0.00 0.00 56 1014.7
20260904193636 94 142 1.0 2.0 0.00 0.00 0.00 63 1014.8
20260904193434 94 142 1.0 2.0 0.00 0.00 0.00 58 1014.8
20260904193234 94 142 1.0 3.0 0.00 0.00 0.00 63 1014.8
20260904193033 94 80 1.0 3.0 0.00 0.00 0.00 62 1014.8
20260904192830 94 66 1.0 3.0 0.00 0.00 0.00 61 1014.9
20260904192629 94 65 1.0 3.0 0.00 0.00 0.00 59 1014.8
20260904192226 94 91 1.0 3.0 0.00 0.00 0.00 57 1014.7
20260904192025 94 91 1.0 3.0 0.00 0.00 0.00 54 1014.6
20260904191822 94 252 1.0 3.0 0.00 0.00 0.00 54 1014.7
20260904191620 94 90 1.0 2.0 0.00 0.00 0.00 56 1014.6
20260904191420 94 89 1.0 2.0 0.00 0.00 0.00 59 1014.5
20260904191018 94 89 1.0 3.0 0.00 0.00 0.00 63 1014.6
20260904190818 94 88 1.0 3.0 0.00 0.00 0.00 61 1014.7
20260904190618 94 86 1.0 5.0 0.00 0.00 0.00 57 1014.8
20260904190219 94 86 1.0 5.0 0.00 0.00 0.00 55 1015.0
20260904190018 94 86 1.0 5.0 0.00 0.00 0.00 60 1015.0
20260904185818 94 85 1.0 5.0 0.00 0.00 0.00 58 1015.1
20260904185416 94 75 1.0 3.0 0.00 0.00 0.00 62 1015.2
20260904185214 94 65 1.0 3.0 0.00 0.00 0.00 63 1015.2
20260904185015 94 64 1.0 5.0 0.00 0.00 0.00 61 1015.2
20260904184814 94 64 1.0 5.0 0.00 0.00 0.00 61 1015.3
20260904184614 94 65 1.0 5.0 0.00 0.00 0.00 61 1015.4
20260904184413 94 64 1.0 5.0 0.00 0.00 0.00 61 1015.4
20260904184013 94 98 1.0 5.0 0.00 0.00 0.00 62 1015.4
20260904183812 94 159 1.0 5.0 0.00 0.00 0.00 62 1015.4
20260904183610 94 110 1.0 5.0 0.00 0.00 0.00 65 1015.5
20260904183412 94 107 1.0 5.0 0.00 0.00 0.00 63 1015.5
20260904183209 94 132 1.0 5.0 0.00 0.00 0.00 62 1015.6
20260904183009 94 92 1.0 5.0 0.00 0.00 0.00 63 1015.6
20260904182807 93 94 1.0 3.0 0.00 0.00 0.00 64 1015.6
20260904182607 94 94 1.0 3.0 0.00 0.00 0.00 64 1015.6
20260904182408 93 99 1.0 3.0 0.00 0.00 0.00 63 1015.7
20260904182207 94 281 1.0 3.0 0.00 0.00 0.00 63 1015.7
20260904182004 94 281 1.0 3.0 0.00 0.00 0.00 63 1015.7
20260904181604 93 281 0.0 3.0 0.00 0.00 0.00 63 1015.7
20260904181403 93 183 0.0 2.0 0.00 0.00 0.00 63 1015.8
20260904181201 93 56 0.0 1.0 0.00 0.00 0.00 63 1015.9
20260904181003 93 57 0.0 2.0 0.00 0.00 0.00 63 1015.8
20260904180758 93 57 0.0 3.0 0.00 0.00 0.00 61 1015.8
20260904180558 93 53 1.0 3.0 0.00 0.00 0.00 64 1015.8
20260904180358 93 53 1.0 3.0 0.00 0.00 0.00 65 1015.9
20260904180158 93 53 1.0 3.0 0.00 0.00 0.00 65 1015.9
20260904175956 93 53 1.0 3.0 0.00 0.00 0.00 65 1016.1
20260904175754 93 55 1.0 3.0 0.00 0.00 0.00 66 1016.1
20260904175553 93 62 1.0 3.0 0.00 0.00 0.00 65 1016.1
20260904175351 93 123 1.0 3.0 0.00 0.00 0.00 64 1016.1
20260904175148 93 124 1.0 3.0 0.00 0.00 0.00 64 1016.1
20260904174949 93 124 2.0 4.0 0.00 0.00 0.00 63 1016.2
20260904174548 93 113 2.0 5.0 0.00 0.00 0.00 64 1016.2
20260904174348 93 355 2.0 5.0 0.00 0.00 0.00 65 1016.2
20260904174151 93 355 2.0 5.0 0.00 0.00 0.00 63 1016.2
20260904173949 93 5 2.0 5.0 0.00 0.00 0.00 64 1016.2
20260904173747 93 40 1.0 5.0 0.00 0.00 0.00 66 1016.3
20260904173544 93 41 1.0 5.0 0.00 0.00 0.00 65 1016.3
20260904173144 93 37 1.0 5.0 0.00 0.00 0.00 65 1016.3
20260904172947 92 5 1.0 5.0 0.00 0.00 0.00 65 1016.4
20260904172745 92 53 1.0 4.0 0.00 0.00 0.00 65 1016.4
20260904172543 92 53 1.0 4.0 0.00 0.00 0.00 66 1016.3
20260904172342 92 69 1.0 4.0 0.00 0.00 0.00 65 1016.3
20260904172143 92 69 1.0 4.0 0.00 0.00 0.00 66 1016.3
20260904171943 92 247 1.0 4.0 0.00 0.00 0.00 65 1016.4
20260904171741 92 344 1.0 5.0 0.00 0.00 0.00 65 1016.3
20260904171338 92 324 1.0 5.0 0.00 0.00 0.00 64 1016.4
20260904171138 92 324 1.0 5.0 0.00 0.00 0.00 67 1016.3
20260904170938 92 324 1.0 5.0 0.00 0.00 0.00 65 1016.3
20260904170737 92 90 0.0 2.0 0.00 0.00 0.00 66 1016.4
20260904170534 92 90 1.0 3.0 0.00 0.00 0.00 65 1016.4
20260904170333 92 90 1.0 3.0 0.00 0.00 0.00 65 1016.4
20260904170133 92 88 1.0 3.0 0.00 0.00 0.00 66 1016.4
20260904165933 92 88 1.0 3.0 0.00 0.00 0.00 65 1016.4
20260904165731 92 88 1.0 3.0 0.00 0.00 0.00 65 1016.4
20260904165530 92 88 1.0 3.0 0.00 0.00 0.00 65 1016.5
20260904165330 92 85 1.0 3.0 0.00 0.00 0.00 64 1016.5
20260904164727 91 88 1.0 3.0 0.00 0.00 0.00 68 1016.7
20260904164327 91 88 1.0 2.0 0.00 0.00 0.00 66 1016.7
20260904164127 91 88 1.0 2.0 0.00 0.00 0.00 65 1016.8
20260904163926 91 88 1.0 2.0 0.00 0.00 0.00 66 1016.9
20260904163523 91 88 1.0 2.0 0.00 0.00 0.00 67 1016.9
20260904163323 91 88 1.0 2.0 0.00 0.00 0.00 67 1016.9
20260904163122 91 88 1.0 2.0 0.00 0.00 0.00 67 1016.9
20260904162920 91 5 1.0 2.0 0.00 0.00 0.00 70 1017.0
20260904162720 91 5 1.0 2.0 0.00 0.00 0.00 70 1017.0
20260904162520 91 190 1.0 2.0 0.00 0.00 0.00 70 1017.0
20260904162119 90 194 1.0 2.0 0.00 0.00 0.00 69 1017.0
20260904161918 91 194 1.0 2.0 0.00 0.00 0.00 70 1017.0
20260904161518 90 196 1.0 3.0 0.00 0.00 0.00 69 1017.1
20260904161318 90 232 1.0 3.0 0.00 0.00 0.00 69 1017.1